Powrót do katalogu

SPACEMOBILE-002

AktywnyŁącznośćVLEO
NORAD 61048·PAYLOAD·🇺🇸 United States

Wystrzelony Sep 12, 2024 z Cape Canaveral Space Force Station

Loading…

Następne Przeloty (najbliższe 24 godziny)

TLE

ŚwieżeSource: CelesTrak SupGP

Epoka: Sep 14, 2026, 23:06 UTC

1 61048C 24163D   26257.96276352 -.00691300  00000+0 -31045-1 0  2578
2 61048  52.9754 256.4141 0006674  36.6697 322.5404 15.20662415    19

Śledź SPACEMOBILE-002 w czasie rzeczywistym z AllMySat

Download on the App Store